Tracking 29892 objects as of 21-Nov-2024
HD Live streaming from Space Station
objects crossing your sky now

CZ-2C R/B

Track CZ-2C R/B now!
10-day predictions


NORAD ID: 55691
Int'l Code: 2023-025B
Perigee: 430.8 km
Apogee: 490.8 km
Inclination: 97.5 °
Period: 93.7 minutes
Semi major axis: 6831 km
RCS: Unknown
Launch date: February 24, 2023
Source: People's Republic of China (PRC)
Launch site: Jiuquan Satellite Launch Center, China (JSC)

Note: This is a ROCKET BODY
Your satellite tracking list
Your tracking list is empty




NASA's NSSDC Master Catalog

Two Line Element Set (TLE):
1 55691U 23025B   24325.25461095  .00029801  00000-0  78571-3 0  9997
2 55691  97.5469  51.3301 0043912 214.9258 144.9104 15.37451627 96763
Source of the keplerian elements: AFSPC